| time (UTC) | temp F | wind direction | speed MPH | gust MPH | rain 1hr in | rain 24hr in | rain mn in | humidity % | barometer mb |
| 20260506044016 | 51 | 135 | 2.0 | 7.0 | 0.00 | 0.00 | 0.00 | 89 | 1016.8 |
| 20260506043516 | 51 | 158 | 2.0 | 6.0 | 0.00 | 0.00 | 0.00 | 89 | 1016.7 |
| 20260506043016 | 51 | 158 | 2.0 | 6.0 | 0.00 | 0.00 | 0.00 | 89 | 1016.6 |
| 20260506042516 | 51 | 158 | 2.0 | 5.0 | 0.00 | 0.00 | 0.00 | 89 | 1016.7 |
| 20260506042016 | 51 | 135 | 2.0 | 5.0 | 0.00 | 0.00 | 0.00 | 89 | 1016.6 |
| 20260506041516 | 50 | 135 | 3.0 | 11.0 | 0.00 | 0.00 | 0.00 | 89 | 1016.7 |
| 20260506041016 | 50 | 158 | 2.0 | 7.0 | 0.00 | 0.00 | 0.00 | 89 | 1016.8 |
| 20260506040516 | 50 | 135 | 2.0 | 9.0 | 0.00 | 0.00 | 0.00 | 89 | 1016.7 |
| 20260506040016 | 50 | 135 | 3.0 | 7.0 | 0.00 | 0.00 | 0.00 | 89 | 1016.7 |
| 20260506035516 | 50 | 158 | 3.0 | 9.0 | 0.00 | 0.00 | 0.00 | 89 | 1016.6 |
| 20260506035016 | 51 | 135 | 2.0 | 6.0 | 0.00 | 0.00 | 0.00 | 89 | 1016.6 |
| 20260506034516 | 51 | 158 | 3.0 | 8.0 | 0.00 | 0.00 | 0.00 | 89 | 1016.7 |
| 20260506034016 | 51 | 158 | 3.0 | 6.0 | 0.00 | 0.00 | 0.00 | 89 | 1016.8 |
| 20260506033516 | 51 | 135 | 3.0 | 8.0 | 0.00 | 0.00 | 0.00 | 89 | 1016.8 |
| 20260506033016 | 51 | 158 | 3.0 | 12.0 | 0.00 | 0.00 | 0.00 | 89 | 1016.8 |
| 20260506032516 | 51 | 158 | 3.0 | 16.0 | 0.00 | 0.00 | 0.00 | 89 | 1016.7 |
| 20260506032016 | 51 | 158 | 2.0 | 12.0 | 0.00 | 0.00 | 0.00 | 89 | 1016.6 |
| 20260506031516 | 51 | 135 | 2.0 | 10.0 | 0.00 | 0.00 | 0.00 | 89 | 1016.6 |
| 20260506031016 | 51 | 158 | 3.0 | 10.0 | 0.00 | 0.00 | 0.00 | 90 | 1016.6 |
| 20260506030516 | 51 | 158 | 3.0 | 7.0 | 0.00 | 0.00 | 0.00 | 90 | 1016.6 |
| 20260506030016 | 50 | 135 | 2.0 | 8.0 | 0.00 | 0.00 | 0.00 | 89 | 1016.7 |
| 20260506025516 | 50 | 158 | 2.0 | 6.0 | 0.00 | 0.00 | 0.00 | 89 | 1016.6 |
| 20260506025016 | 50 | 158 | 2.0 | 6.0 | 0.00 | 0.00 | 0.00 | 89 | 1016.6 |
| 20260506024517 | 50 | 158 | 2.0 | 7.0 | 0.00 | 0.00 | 0.00 | 89 | 1016.6 |
| 20260506024016 | 50 | 158 | 2.0 | 13.0 | 0.00 | 0.00 | 0.00 | 89 | 1016.5 |
| 20260506023516 | 50 | 135 | 3.0 | 7.0 | 0.00 | 0.00 | 0.00 | 89 | 1016.6 |
| 20260506023016 | 50 | 135 | 2.0 | 6.0 | 0.00 | 0.00 | 0.00 | 89 | 1016.6 |
| 20260506022517 | 51 | 135 | 2.0 | 6.0 | 0.00 | 0.00 | 0.00 | 89 | 1016.6 |
| 20260506022016 | 51 | 135 | 2.0 | 9.0 | 0.00 | 0.00 | 0.00 | 89 | 1016.6 |
| 20260506021516 | 51 | 158 | 3.0 | 12.0 | 0.00 | 0.00 | 0.00 | 89 | 1016.6 |
| 20260506021017 | 51 | 158 | 3.0 | 10.0 | 0.00 | 0.00 | 0.00 | 89 | 1016.6 |
| 20260506020516 | 51 | 203 | 3.0 | 8.0 | 0.00 | 0.00 | 0.00 | 88 | 1016.5 |
| 20260506020016 | 51 | 135 | 3.0 | 9.0 | 0.00 | 0.00 | 0.00 | 88 | 1016.6 |
| 20260506015516 | 51 | 203 | 2.0 | 10.0 | 0.00 | 0.00 | 0.00 | 88 | 1016.8 |
| 20260506015017 | 51 | 180 | 3.0 | 12.0 | 0.00 | 0.00 | 0.00 | 88 | 1016.6 |
| 20260506014516 | 51 | 135 | 3.0 | 11.0 | 0.00 | 0.00 | 0.00 | 88 | 1016.6 |
| 20260506014016 | 52 | 203 | 2.0 | 8.0 | 0.00 | 0.00 | 0.00 | 88 | 1016.7 |
| 20260506013516 | 52 | 135 | 3.0 | 10.0 | 0.00 | 0.00 | 0.00 | 88 | 1016.7 |
| 20260506013016 | 52 | 158 | 3.0 | 11.0 | 0.00 | 0.00 | 0.00 | 88 | 1016.6 |
| 20260506012516 | 52 | 135 | 2.0 | 7.0 | 0.00 | 0.00 | 0.00 | 88 | 1016.6 |
| 20260506012016 | 52 | 135 | 3.0 | 13.0 | 0.00 | 0.00 | 0.00 | 89 | 1016.6 |
| 20260506011517 | 52 | 203 | 3.0 | 9.0 | 0.00 | 0.00 | 0.00 | 89 | 1016.5 |
| 20260506011017 | 52 | 135 | 3.0 | 10.0 | 0.00 | 0.00 | 0.00 | 89 | 1016.4 |
| 20260506010516 | 51 | 225 | 2.0 | 9.0 | 0.00 | 0.00 | 0.00 | 88 | 1016.4 |
| 20260506010017 | 51 | 135 | 2.0 | 4.0 | 0.00 | 0.00 | 0.00 | 88 | 1016.3 |
| 20260506005516 | 51 | 135 | 3.0 | 10.0 | 0.00 | 0.00 | 0.00 | 89 | 1016.1 |
| 20260506005016 | 51 | 158 | 2.0 | 7.0 | 0.00 | 0.00 | 0.00 | 88 | 1016.0 |
| 20260506004516 | 52 | 135 | 3.0 | 11.0 | 0.00 | 0.00 | 0.00 | 88 | 1016.0 |
| 20260506004017 | 52 | 203 | 4.0 | 11.0 | 0.00 | 0.00 | 0.00 | 88 | 1016.0 |
| 20260506003516 | 52 | 135 | 3.0 | 7.0 | 0.00 | 0.00 | 0.00 | 88 | 1015.9 |
| 20260506003016 | 52 | 225 | 4.0 | 13.0 | 0.00 | 0.00 | 0.00 | 88 | 1015.7 |
| 20260506002517 | 52 | 135 | 3.0 | 13.0 | 0.00 | 0.00 | 0.00 | 88 | 1015.5 |
| 20260506002016 | 52 | 135 | 2.0 | 7.0 | 0.00 | 0.00 | 0.00 | 88 | 1015.4 |
| 20260506001516 | 52 | 203 | 4.0 | 10.0 | 0.00 | 0.00 | 0.00 | 88 | 1015.6 |
| 20260506001016 | 52 | 225 | 3.0 | 10.0 | 0.00 | 0.00 | 0.00 | 88 | 1015.2 |
| 20260506000517 | 52 | 158 | 5.0 | 10.0 | 0.00 | 0.00 | 0.00 | 88 | 1015.0 |
| 20260506000016 | 52 | 225 | 4.0 | 11.0 | 0.00 | 0.00 | 0.00 | 88 | 1015.1 |
| 20260505235516 | 52 | 113 | 3.0 | 8.0 | 0.00 | 0.00 | 0.00 | 88 | 1015.1 |
| 20260505235016 | 52 | 158 | 2.0 | 8.0 | 0.00 | 0.00 | 0.00 | 88 | 1014.9 |
| 20260505234517 | 52 | 135 | 2.0 | 7.0 | 0.00 | 0.00 | 0.00 | 88 | 1014.9 |
| 20260505234016 | 52 | 158 | 3.0 | 10.0 | 0.00 | 0.00 | 0.00 | 88 | 1014.8 |
| 20260505233517 | 52 | 203 | 4.0 | 11.0 | 0.00 | 0.00 | 0.00 | 88 | 1014.8 |
| 20260505233017 | 52 | 225 | 2.0 | 6.0 | 0.00 | 0.00 | 0.00 | 88 | 1014.6 |
| 20260505232517 | 52 | 158 | 3.0 | 10.0 | 0.00 | 0.00 | 0.00 | 88 | 1014.7 |
| 20260505232017 | 52 | 135 | 3.0 | 8.0 | 0.00 | 0.00 | 0.00 | 88 | 1014.6 |
| 20260505231516 | 52 | 158 | 3.0 | 10.0 | 0.00 | 0.00 | 0.00 | 88 | 1014.5 |
| 20260505231016 | 52 | 158 | 4.0 | 11.0 | 0.00 | 0.00 | 0.00 | 88 | 1014.4 |
| 20260505230516 | 52 | 135 | 2.0 | 6.0 | 0.00 | 0.00 | 0.00 | 87 | 1014.2 |
| 20260505230017 | 52 | 158 | 3.0 | 7.0 | 0.00 | 0.00 | 0.00 | 87 | 1014.2 |
| 20260505225516 | 53 | 135 | 3.0 | 12.0 | 0.00 | 0.00 | 0.00 | 87 | 1014.3 |
| 20260505225016 | 53 | 135 | 4.0 | 12.0 | 0.00 | 0.00 | 0.00 | 86 | 1014.3 |
| 20260505224516 | 53 | 135 | 3.0 | 10.0 | 0.00 | 0.00 | 0.00 | 86 | 1014.2 |
| 20260505224016 | 53 | 158 | 4.0 | 11.0 | 0.00 | 0.00 | 0.00 | 86 | 1014.2 |
| 20260505223516 | 54 | 135 | 4.0 | 13.0 | 0.00 | 0.00 | 0.00 | 86 | 1014.1 |
| 20260505223016 | 54 | 225 | 5.0 | 16.0 | 0.00 | 0.00 | 0.00 | 86 | 1013.9 |
| 20260505222516 | 54 | 158 | 4.0 | 12.0 | 0.00 | 0.00 | 0.00 | 85 | 1013.9 |
| 20260505222017 | 54 | 135 | 3.0 | 15.0 | 0.00 | 0.00 | 0.00 | 85 | 1013.9 |
| 20260505221516 | 54 | 225 | 4.0 | 15.0 | 0.00 | 0.00 | 0.00 | 85 | 1013.7 |
| 20260505221016 | 54 | 135 | 4.0 | 12.0 | 0.00 | 0.00 | 0.00 | 84 | 1013.8 |
| 20260505220516 | 54 | 135 | 3.0 | 13.0 | 0.00 | 0.00 | 0.00 | 84 | 1013.8 |
| 20260505220016 | 54 | 158 | 3.0 | 10.0 | 0.00 | 0.00 | 0.00 | 83 | 1013.8 |
| 20260505215516 | 54 | 225 | 4.0 | 12.0 | 0.00 | 0.00 | 0.00 | 83 | 1013.8 |
| 20260505215016 | 55 | 158 | 4.0 | 12.0 | 0.00 | 0.00 | 0.00 | 82 | 1013.5 |
| 20260505214517 | 55 | 158 | 4.0 | 10.0 | 0.00 | 0.00 | 0.00 | 82 | 1013.6 |
| 20260505214016 | 56 | 158 | 4.0 | 12.0 | 0.00 | 0.00 | 0.00 | 80 | 1013.5 |
| 20260505213517 | 56 | 158 | 4.0 | 13.0 | 0.00 | 0.00 | 0.00 | 79 | 1013.5 |
| 20260505213016 | 57 | 225 | 4.0 | 17.0 | 0.00 | 0.00 | 0.00 | 78 | 1013.4 |
| 20260505212517 | 57 | 135 | 3.0 | 12.0 | 0.00 | 0.00 | 0.00 | 78 | 1013.3 |
| 20260505212016 | 57 | 158 | 6.0 | 21.0 | 0.00 | 0.00 | 0.00 | 77 | 1013.3 |
| 20260505211516 | 58 | 135 | 3.0 | 14.0 | 0.00 | 0.00 | 0.00 | 77 | 1013.3 |
| 20260505211016 | 58 | 135 | 3.0 | 7.0 | 0.00 | 0.00 | 0.00 | 76 | 1013.3 |
| 20260505210517 | 58 | 158 | 3.0 | 12.0 | 0.00 | 0.00 | 0.00 | 77 | 1013.3 |
| 20260505210016 | 58 | 203 | 5.0 | 14.0 | 0.00 | 0.00 | 0.00 | 76 | 1013.3 |
| 20260505205516 | 58 | 180 | 5.0 | 15.0 | 0.00 | 0.00 | 0.00 | 76 | 1013.3 |
| 20260505205016 | 58 | 180 | 6.0 | 15.0 | 0.00 | 0.00 | 0.00 | 75 | 1013.6 |
| 20260505204516 | 59 | 135 | 4.0 | 12.0 | 0.00 | 0.00 | 0.00 | 75 | 1013.5 |
| 20260505204016 | 59 | 135 | 4.0 | 10.0 | 0.00 | 0.00 | 0.00 | 74 | 1013.5 |
| 20260505203517 | 59 | 135 | 4.0 | 16.0 | 0.00 | 0.00 | 0.00 | 75 | 1013.5 |
| 20260505203016 | 59 | 135 | 4.0 | 11.0 | 0.00 | 0.00 | 0.00 | 73 | 1013.5 |
| 20260505202516 | 60 | 158 | 4.0 | 9.0 | 0.00 | 0.00 | 0.00 | 73 | 1013.5 |
| 20260505202017 | 60 | 135 | 4.0 | 12.0 | 0.00 | 0.00 | 0.00 | 72 | 1013.4 |
| 20260505201516 | 60 | 113 | 3.0 | 10.0 | 0.00 | 0.00 | 0.00 | 72 | 1013.6 |
| 20260505201017 | 60 | 135 | 4.0 | 20.0 | 0.00 | 0.00 | 0.00 | 72 | 1013.6 |
| 20260505200516 | 60 | 158 | 4.0 | 13.0 | 0.00 | 0.00 | 0.00 | 71 | 1013.6 |
| 20260505200017 | 60 | 135 | 3.0 | 9.0 | 0.00 | 0.00 | 0.00 | 72 | 1013.6 |
| 20260505195516 | 61 | 158 | 4.0 | 10.0 | 0.00 | 0.00 | 0.00 | 71 | 1013.6 |
| 20260505195016 | 61 | 158 | 3.0 | 8.0 | 0.00 | 0.00 | 0.00 | 71 | 1013.5 |
| 20260505194516 | 61 | 135 | 4.0 | 8.0 | 0.00 | 0.00 | 0.00 | 70 | 1013.5 |
| 20260505194016 | 61 | 158 | 4.0 | 10.0 | 0.00 | 0.00 | 0.00 | 71 | 1013.5 |
| 20260505193517 | 61 | 158 | 5.0 | 11.0 | 0.00 | 0.00 | 0.00 | 70 | 1013.6 |
| 20260505193016 | 61 | 158 | 4.0 | 11.0 | 0.00 | 0.00 | 0.00 | 70 | 1013.5 |
| 20260505192517 | 61 | 135 | 4.0 | 12.0 | 0.00 | 0.00 | 0.00 | 69 | 1013.6 |
| 20260505192016 | 62 | 158 | 3.0 | 8.0 | 0.00 | 0.00 | 0.00 | 69 | 1013.7 |
| 20260505191516 | 62 | 113 | 4.0 | 8.0 | 0.00 | 0.00 | 0.00 | 68 | 1013.7 |
| 20260505191016 | 62 | 113 | 4.0 | 9.0 | 0.00 | 0.00 | 0.00 | 68 | 1013.6 |
| 20260505190516 | 62 | 158 | 4.0 | 11.0 | 0.00 | 0.00 | 0.00 | 68 | 1013.6 |
| 20260505190021 | 62 | 135 | 4.0 | 13.0 | 0.00 | 0.00 | 0.00 | 67 | 1013.5 |
| 20260505185516 | 62 | 135 | 5.0 | 11.0 | 0.00 | 0.00 | 0.00 | 67 | 1013.6 |
| 20260505185016 | 62 | 135 | 4.0 | 9.0 | 0.00 | 0.00 | 0.00 | 67 | 1013.7 |
| 20260505184516 | 62 | 135 | 4.0 | 10.0 | 0.00 | 0.00 | 0.00 | 66 | 1013.5 |
| 20260505184016 | 62 | 135 | 4.0 | 11.0 | 0.00 | 0.00 | 0.00 | 66 | 1013.8 |
| 20260505183517 | 63 | 135 | 4.0 | 12.0 | 0.00 | 0.00 | 0.00 | 66 | 1013.8 |
| 20260505183016 | 63 | 158 | 3.0 | 9.0 | 0.00 | 0.00 | 0.00 | 65 | 1013.7 |
| 20260505182516 | 62 | 158 | 4.0 | 13.0 | 0.00 | 0.00 | 0.00 | 65 | 1013.7 |
| 20260505182017 | 62 | 135 | 3.0 | 6.0 | 0.00 | 0.00 | 0.00 | 65 | 1013.8 |
| 20260505181516 | 62 | 135 | 3.0 | 7.0 | 0.00 | 0.00 | 0.00 | 64 | 1013.8 |
| 20260505181017 | 62 | 180 | 3.0 | 6.0 | 0.00 | 0.00 | 0.00 | 65 | 1013.8 |
| 20260505180516 | 62 | 135 | 3.0 | 8.0 | 0.00 | 0.00 | 0.00 | 63 | 1013.9 |
| 20260505180016 | 62 | 135 | 3.0 | 7.0 | 0.00 | 0.00 | 0.00 | 63 | 1013.8 |
| 20260505175516 | 62 | 135 | 3.0 | 9.0 | 0.00 | 0.00 | 0.00 | 63 | 1013.7 |
| 20260505175016 | 62 | 135 | 3.0 | 12.0 | 0.00 | 0.00 | 0.00 | 64 | 1013.9 |
| 20260505174517 | 62 | 135 | 3.0 | 10.0 | 0.00 | 0.00 | 0.00 | 63 | 1013.8 |
| 20260505174016 | 62 | 225 | 3.0 | 8.0 | 0.00 | 0.00 | 0.00 | 63 | 1013.9 |
| 20260505173517 | 62 | 158 | 3.0 | 11.0 | 0.00 | 0.00 | 0.00 | 62 | 1013.9 |
| 20260505173016 | 62 | 158 | 3.0 | 9.0 | 0.00 | 0.00 | 0.00 | 61 | 1014.0 |
| 20260505172516 | 62 | 135 | 4.0 | 10.0 | 0.00 | 0.00 | 0.00 | 61 | 1013.8 |
| 20260505172016 | 62 | 158 | 4.0 | 12.0 | 0.00 | 0.00 | 0.00 | 61 | 1013.8 |
| 20260505171517 | 63 | 158 | 3.0 | 7.0 | 0.00 | 0.00 | 0.00 | 61 | 1013.8 |
| 20260505171016 | 63 | 158 | 3.0 | 9.0 | 0.00 | 0.00 | 0.00 | 61 | 1013.8 |
| 20260505170516 | 63 | 135 | 3.0 | 9.0 | 0.00 | 0.00 | 0.00 | 61 | 1013.7 |
| 20260505170016 | 62 | 203 | 3.0 | 9.0 | 0.00 | 0.00 | 0.00 | 63 | 1013.9 |
| 20260505165516 | 62 | 135 | 4.0 | 11.0 | 0.00 | 0.00 | 0.00 | 62 | 1013.9 |
| 20260505165016 | 62 | 135 | 3.0 | 7.0 | 0.00 | 0.00 | 0.00 | 65 | 1013.9 |
| 20260505164517 | 61 | 135 | 3.0 | 10.0 | 0.00 | 0.00 | 0.00 | 64 | 1014.0 |
| 20260505164016 | 61 | 135 | 3.0 | 9.0 | 0.00 | 0.00 | 0.00 | 65 | 1013.8 |
| 20260505163516 | 61 | 225 | 3.0 | 9.0 | 0.00 | 0.00 | 0.00 | 65 | 1013.9 |
| 20260505163016 | 61 | 203 | 4.0 | 10.0 | 0.00 | 0.00 | 0.00 | 66 | 1013.9 |
| 20260505162516 | 61 | 158 | 3.0 | 8.0 | 0.00 | 0.00 | 0.00 | 64 | 1014.0 |
| 20260505162016 | 61 | 135 | 3.0 | 8.0 | 0.00 | 0.00 | 0.00 | 64 | 1013.9 |
| 20260505161517 | 61 | 135 | 3.0 | 6.0 | 0.00 | 0.00 | 0.00 | 65 | 1014.0 |
| 20260505161016 | 60 | 135 | 3.0 | 6.0 | 0.00 | 0.00 | 0.00 | 65 | 1014.0 |
| 20260505160516 | 60 | 158 | 3.0 | 10.0 | 0.00 | 0.00 | 0.00 | 66 | 1013.9 |
| 20260505153017 | 60 | 158 | 3.0 | 7.0 | 0.00 | 0.00 | 0.00 | 65 | 1013.7 |
| 20260505152516 | 60 | 158 | 3.0 | 9.0 | 0.00 | 0.00 | 0.00 | 65 | 1013.7 |
| 20260505152016 | 60 | 225 | 2.0 | 10.0 | 0.00 | 0.00 | 0.00 | 66 | 1013.8 |
| 20260505151516 | 60 | 135 | 2.0 | 7.0 | 0.00 | 0.00 | 0.00 | 65 | 1013.7 |
| 20260505151017 | 60 | 135 | 2.0 | 5.0 | 0.00 | 0.00 | 0.00 | 66 | 1013.8 |
| 20260505150516 | 59 | 158 | 2.0 | 5.0 | 0.00 | 0.00 | 0.00 | 68 | 1013.9 |
| 20260505140517 | 56 | 158 | 5.0 | 10.0 | 0.00 | 0.00 | 0.00 | 69 | 1013.6 |
| 20260505125017 | 57 | 158 | 2.0 | 10.0 | 0.00 | 0.00 | 0.00 | 67 | 1013.4 |
| 20260505124516 | 57 | 135 | 2.0 | 6.0 | 0.00 | 0.00 | 0.00 | 69 | 1013.4 |
| 20260505124016 | 57 | 135 | 2.0 | 6.0 | 0.00 | 0.00 | 0.00 | 69 | 1013.4 |
| 20260505123517 | 56 | 135 | 2.0 | 4.0 | 0.00 | 0.00 | 0.00 | 70 | 1013.3 |
| 20260505123016 | 56 | 225 | 2.0 | 5.0 | 0.00 | 0.00 | 0.00 | 70 | 1013.3 |
| 20260505122516 | 55 | 158 | 2.0 | 9.0 | 0.00 | 0.00 | 0.00 | 70 | 1013.3 |
| 20260505122016 | 55 | 225 | 2.0 | 7.0 | 0.00 | 0.00 | 0.00 | 70 | 1013.2 |
| 20260505121517 | 55 | 135 | 2.0 | 8.0 | 0.00 | 0.00 | 0.00 | 71 | 1013.2 |
| 20260505121016 | 54 | 225 | 2.0 | 5.0 | 0.00 | 0.00 | 0.00 | 71 | 1013.2 |
| 20260505120516 | 54 | 225 | 2.0 | 8.0 | 0.00 | 0.00 | 0.00 | 71 | 1013.2 |
| 20260505120016 | 54 | 225 | 2.0 | 7.0 | 0.00 | 0.00 | 0.00 | 72 | 1013.3 |
| 20260505115517 | 54 | 135 | 1.0 | 6.0 | 0.00 | 0.00 | 0.00 | 72 | 1013.1 |
| 20260505115017 | 53 | 113 | 2.0 | 5.0 | 0.00 | 0.00 | 0.00 | 73 | 1013.1 |
| 20260505114516 | 53 | 113 | 1.0 | 3.0 | 0.00 | 0.00 | 0.00 | 74 | 1013.0 |
| 20260505114017 | 52 | 225 | 1.0 | 6.0 | 0.00 | 0.00 | 0.00 | 75 | 1013.0 |
| 20260505113517 | 52 | 203 | 1.0 | 4.0 | 0.00 | 0.00 | 0.00 | 76 | 1013.0 |
| 20260505113016 | 51 | 225 | 1.0 | 4.0 | 0.00 | 0.00 | 0.00 | 78 | 1013.0 |
| 20260505112516 | 50 | 203 | 2.0 | 8.0 | 0.00 | 0.00 | 0.00 | 78 | 1013.1 |
| 20260505112016 | 49 | 225 | 1.0 | 4.0 | 0.00 | 0.00 | 0.00 | 79 | 1013.0 |
| 20260505111516 | 49 | 225 | 1.0 | 4.0 | 0.00 | 0.00 | 0.00 | 80 | 1013.0 |
| 20260505111016 | 48 | 113 | 1.0 | 5.0 | 0.00 | 0.00 | 0.00 | 81 | 1012.9 |
| 20260505110516 | 48 | 203 | 1.0 | 6.0 | 0.00 | 0.00 | 0.00 | 81 | 1012.9 |
| 20260505102017 | 45 | 0.0 | 2.0 | 0.00 | 0.00 | 0.00 | 84 | 1012.5 | |
| 20260505101516 | 45 | 0.0 | 2.0 | 0.00 | 0.00 | 0.00 | 85 | 1012.5 | |
| 20260505101016 | 45 | 0.0 | 1.0 | 0.00 | 0.00 | 0.00 | 85 | 1012.4 | |
| 20260505100516 | 44 | 0.0 | 4.0 | 0.00 | 0.00 | 0.00 | 85 | 1012.4 | |
| 20260505100016 | 44 | 135 | 1.0 | 3.0 | 0.00 | 0.00 | 0.00 | 85 | 1012.3 |
| 20260505095516 | 44 | 0.0 | 4.0 | 0.00 | 0.00 | 0.00 | 85 | 1012.3 | |
| 20260505095016 | 44 | 135 | 1.0 | 3.0 | 0.00 | 0.00 | 0.00 | 85 | 1012.2 |
| 20260505094516 | 44 | 135 | 1.0 | 3.0 | 0.00 | 0.00 | 0.00 | 84 | 1012.3 |
| 20260505094016 | 44 | 225 | 1.0 | 3.0 | 0.00 | 0.00 | 0.00 | 84 | 1012.2 |
| 20260505093516 | 44 | 135 | 1.0 | 6.0 | 0.00 | 0.00 | 0.00 | 84 | 1012.1 |
| 20260505093016 | 44 | 0.0 | 2.0 | 0.00 | 0.00 | 0.00 | 84 | 1012.3 | |
| 20260505092516 | 44 | 225 | 1.0 | 4.0 | 0.00 | 0.00 | 0.00 | 84 | 1012.2 |
| 20260505092016 | 44 | 158 | 1.0 | 6.0 | 0.00 | 0.00 | 0.00 | 84 | 1012.3 |
| 20260505091516 | 45 | 113 | 1.0 | 4.0 | 0.00 | 0.00 | 0.00 | 84 | 1012.1 |
| 20260505091016 | 45 | 225 | 2.0 | 9.0 | 0.00 | 0.00 | 0.00 | 84 | 1012.1 |
| 20260505090516 | 45 | 203 | 1.0 | 5.0 | 0.00 | 0.00 | 0.00 | 84 | 1012.0 |
| 20260505090016 | 45 | 203 | 1.0 | 3.0 | 0.00 | 0.00 | 0.00 | 83 | 1012.2 |
| 20260505085517 | 45 | 0.0 | 2.0 | 0.00 | 0.00 | 0.00 | 83 | 1012.4 | |
| 20260505085016 | 45 | 225 | 2.0 | 7.0 | 0.00 | 0.00 | 0.00 | 83 | 1012.1 |
| 20260505084516 | 45 | 0.0 | 5.0 | 0.00 | 0.00 | 0.00 | 84 | 1012.1 | |
| 20260505084016 | 45 | 135 | 1.0 | 4.0 | 0.00 | 0.00 | 0.00 | 84 | 1012.0 |
| 20260505083516 | 45 | 113 | 1.0 | 3.0 | 0.00 | 0.00 | 0.00 | 84 | 1011.6 |
| 20260505083017 | 45 | 0.0 | 1.0 | 0.00 | 0.00 | 0.00 | 84 | 1011.8 | |
| 20260505082517 | 45 | 0.0 | 3.0 | 0.00 | 0.00 | 0.00 | 84 | 1011.9 | |
| 20260505082016 | 45 | 0.0 | 2.0 | 0.00 | 0.00 | 0.00 | 84 | 1011.9 | |
| 20260505081516 | 45 | 0.0 | 2.0 | 0.00 | 0.00 | 0.00 | 83 | 1011.8 | |
| 20260505081016 | 45 | 0.0 | 2.0 | 0.00 | 0.00 | 0.00 | 83 | 1011.7 | |
| 20260505080516 | 45 | 0.0 | 4.0 | 0.00 | 0.00 | 0.00 | 83 | 1011.6 | |
| 20260505080016 | 45 | 0.0 | 2.0 | 0.00 | 0.00 | 0.00 | 83 | 1011.6 | |
| 20260505075516 | 45 | 0.0 | 1.0 | 0.00 | 0.00 | 0.00 | 83 | 1011.7 | |
| 20260505075016 | 45 | 0.0 | 1.0 | 0.00 | 0.00 | 0.00 | 82 | 1011.8 | |
| 20260505074517 | 46 | 0.0 | 2.0 | 0.00 | 0.00 | 0.00 | 82 | 1011.8 | |
| 20260505074016 | 46 | 0.0 | 1.0 | 0.00 | 0.00 | 0.00 | 81 | 1011.8 | |
| 20260505073516 | 46 | 0.0 | 2.0 | 0.00 | 0.00 | 0.00 | 81 | 1011.5 | |
| 20260505073016 | 46 | 0.0 | 1.0 | 0.00 | 0.00 | 0.00 | 81 | 1011.2 | |
| 20260505072516 | 46 | 135 | 1.0 | 2.0 | 0.00 | 0.00 | 0.00 | 80 | 1011.2 |
| 20260505072017 | 47 | 0.0 | 1.0 | 0.00 | 0.00 | 0.00 | 80 | 1011.3 | |
| 20260505071516 | 47 | 135 | 1.0 | 4.0 | 0.00 | 0.00 | 0.00 | 80 | 1011.2 |
| 20260505071016 | 47 | 0.0 | 2.0 | 0.00 | 0.00 | 0.00 | 80 | 1011.4 | |
| 20260505070516 | 47 | 0.0 | 2.0 | 0.00 | 0.00 | 0.00 | 80 | 1011.4 | |
| 20260505070016 | 47 | 135 | 1.0 | 7.0 | 0.00 | 0.00 | 0.00 | 79 | 1011.3 |
| 20260505065516 | 47 | 0.0 | 0.0 | 0.00 | 0.00 | 0.00 | 79 | 1011.3 | |
| 20260505065016 | 47 | 0.0 | 1.0 | 0.00 | 0.00 | 0.00 | 79 | 1011.1 | |
| 20260505064516 | 47 | 0.0 | 4.0 | 0.00 | 0.00 | 0.00 | 79 | 1010.9 | |
| 20260505064016 | 47 | 0.0 | 1.0 | 0.00 | 0.00 | 0.00 | 79 | 1010.9 | |
| 20260505063516 | 47 | 113 | 1.0 | 2.0 | 0.00 | 0.00 | 0.00 | 79 | 1010.8 |
| 20260505063016 | 47 | 225 | 1.0 | 2.0 | 0.00 | 0.00 | 0.00 | 79 | 1010.9 |
| 20260505062516 | 47 | 0.0 | 3.0 | 0.00 | 0.00 | 0.00 | 79 | 1010.8 | |
| 20260505062016 | 47 | 225 | 1.0 | 4.0 | 0.00 | 0.01 | 0.00 | 79 | 1010.9 |
| 20260505061516 | 47 | 180 | 1.0 | 5.0 | 0.00 | 0.01 | 0.00 | 80 | 1010.9 |
| 20260505061016 | 47 | 203 | 1.0 | 5.0 | 0.00 | 0.01 | 0.00 | 80 | 1011.0 |
| 20260505060516 | 46 | 203 | 1.0 | 5.0 | 0.00 | 0.01 | 0.00 | 79 | 1011.1 |
| 20260505060016 | 46 | 0.0 | 0.0 | 0.00 | 0.01 | 0.00 | 79 | 1010.8 | |
| 20260505055516 | 47 | 0.0 | 0.0 | 0.00 | 0.01 | 0.00 | 78 | 1010.6 | |
| 20260505055016 | 47 | 0.0 | 4.0 | 0.00 | 0.02 | 0.00 | 78 | 1010.7 | |
| 20260505054516 | 47 | 0.0 | 3.0 | 0.00 | 0.02 | 0.00 | 78 | 1010.6 | |
| 20260505054016 | 47 | 225 | 1.0 | 3.0 | 0.00 | 0.02 | 0.00 | 78 | 1010.6 |
| 20260505053517 | 47 | 0.0 | 5.0 | 0.00 | 0.02 | 0.00 | 78 | 1010.5 | |
| 20260505053016 | 47 | 0.0 | 2.0 | 0.00 | 0.02 | 0.00 | 78 | 1010.4 | |
| 20260505052516 | 47 | 0.0 | 3.0 | 0.00 | 0.03 | 0.00 | 78 | 1010.4 | |
| 20260505052016 | 47 | 0.0 | 1.0 | 0.00 | 0.03 | 0.00 | 78 | 1010.4 | |
| 20260505051516 | 47 | 0.0 | 1.0 | 0.00 | 0.03 | 0.00 | 77 | 1010.4 | |
| 20260505051016 | 48 | 225 | 1.0 | 4.0 | 0.00 | 0.03 | 0.00 | 77 | 1010.4 |
| 20260505050516 | 48 | 225 | 1.0 | 3.0 | 0.00 | 0.04 | 0.00 | 77 | 1010.3 |